Flag for U.S.A. Weather past 2 weeks in Racine, Wisconsin, U.S.A.

Now
68 °F

Sunny.


Feels Like: 68 °F
Forecast: 60 / 71 °F
Wind: 8 mph from South

Location: Batten International Airport

Current Time: Aug 30, 2015 at 6:40:03 PM

Latest Report: Aug 30, 2015 at 5:53 PM


Visibility: 9 mi

Pressure: 30.03 "Hg

Humidity: 82%

Dew point: 62 °F

Location of RacineLocation

Historic Weather in Racine — Graph

°F

Racine temperature yesterday

Maximum temperature yesterday: 65 °F (at 12:53 AM)
Minimum temperature yesterday: 61 °F (at 7:53 AM)
Average temperature yesterday: 63 °F

Past Weeks' High & Low Weather Summary

 TemperatureHumidityPressure
High88 °F (Aug 16, 1:53 PM)97% (Aug 30, 6:53 AM)30.24 "Hg (Aug 30, 6:53 AM)
Low51 °F (Aug 27, 3:53 AM)42% (Aug 24, 12:53 PM)29.61 "Hg (Aug 19, 8:53 AM)
Average67 °F72%29.99 "Hg
* Reported Aug 15 4:53 PM — Aug 30 4:53 PM, Racine, Weather by CustomWeather, © 2015

Note: Actual official high and low records may vary slightly from our data, if they occured in-between our weather recording intervals... More about our weather records

Advertising

Racine weather history for previous 24 hours

 ConditionsComfort  
Time TempWeatherWind HumidityBarometerVisibility
4:53 PM
Sun, Aug 30
70 °FSunny.7 mph73%30.04 "Hg10 mi
3:53 PM70 °FScattered clouds.7 mph76%30.04 "Hg10 mi
2:53 PM70 °FOvercast.7 mph73%30.06 "Hg10 mi
2:03 PM70 °FMostly cloudy.No wind76%30.08 "Hg10 mi
1:53 PM71 °FMore clouds than sun.3 mph73%30.08 "Hg10 mi
12:53 PM70 °FMostly cloudy.6 mph76%30.09 "Hg9 mi
11:53 AM70 °FOvercast.3 mph76%30.09 "Hg9 mi
10:53 AM69 °FCloudy.5 mph81%30.10 "Hg8 mi
9:53 AM66 °FFog.6 mph90%30.10 "Hg5 mi
9:04 AM64 °FFog.5 mph94%30.10 "Hg2 mi
8:53 AM64 °FFog.5 mph94%30.09 "Hg1 mi
7:53 AM64 °FFog.5 mph94%30.09 "Hg0 mi
6:53 AM63 °FFog.5 mph97%30.08 "Hg0 mi
5:53 AM63 °FFog.6 mph93%30.06 "Hg0 mi
4:53 AM63 °FFog.7 mph93%30.05 "Hg0 mi
3:53 AM63 °FFog.5 mph93%30.04 "Hg1 mi
2:53 AM63 °FFog.3 mph93%30.04 "Hg0 mi
1:53 AM63 °FFog.3 mph93%30.05 "Hg1 mi
12:53 AM63 °FFog.5 mph93%30.05 "Hg1 mi
11:53 PM
Sat, Aug 29
63 °FFog.7 mph93%30.05 "Hg1 mi
10:53 PM63 °FFog.8 mph93%30.06 "Hg2 mi
9:53 PM63 °FFog.8 mph93%30.06 "Hg1 mi
8:53 PM62 °FFog.9 mph93%30.05 "Hg2 mi
7:53 PM61 °FFog.7 mph93%30.05 "Hg1 mi
6:53 PM61 °FLight rain. Fog.6 mph93%30.03 "Hg1 mi
Weather by CustomWeather, © 2015

See weather overviewHow to use our weather pages